Precipitable_Water
1.24 1.08 1.03 0.95 0.96 0.96 0.97 0.98 0.99 0.97 0.95 0.91 0.89 0.90 0.88 0.86 0.94 0.99 0.98 0.98 0.98 0.99 1.04 1.08 1.09 1.07 1.08 1.16 1.23 1.26 1.24 1.29 1.26 1.19 1.17 1.13 1.09 1.05 1.09 1.10 1.07 0.99 0.93
1.17 1.02 1.02 0.95 0.97 1.01 1.02 1.05 1.00 0.98 0.94 0.90 0.90 0.98 0.95 0.99 1.08 1.09 1.06 1.06 1.09 1.09 1.08 1.06 1.06 1.09 1.10 1.10 1.15 1.30 1.42 1.44 1.36 1.28 1.22 1.17 1.16 1.09 1.05 1.06 1.09 1.09 1.06
1.12 1.06 1.05 1.02 1.03 1.05 1.05 1.03 0.99 0.99 0.96 0.95 0.95 1.02 1.04 1.05 1.10 1.12 1.13 1.14 1.15 1.15 1.12 1.11 1.11 1.13 1.13 1.14 1.14 1.21 1.33 1.34 1.33 1.24 1.23 1.22 1.21 1.18 1.07 1.11 1.11 1.15 1.14
1.09 1.05 1.00 1.00 1.04 1.03 1.03 1.02 1.00 0.97 0.97 1.00 1.10 1.04 1.03 1.09 1.15 1.17 1.20 1.22 1.20 1.18 1.19 1.20 1.19 1.17 1.14 1.10 1.11 1.17 1.27 1.27 1.22 1.18 1.16 1.17 1.17 1.16 1.07 1.13 1.18 1.15 1.14
1.11 1.02 1.01 1.02 1.11 1.13 1.12 1.09 1.04 1.01 0.96 1.04 1.12 1.07 1.10 1.13 1.17 1.21 1.22 1.19 1.16 1.21 1.20 1.18 1.13 1.09 1.06 1.07 1.08 1.14 1.20 1.22 1.25 1.21 1.19 1.15 1.10 1.08 1.01 1.00 1.02 1.11 1.25
1.23 1.17 1.18 1.20 1.25 1.23 1.20 1.16 1.12 1.14 1.08 1.14 1.10 1.04 1.11 1.21 1.25 1.23 1.24 1.24 1.22 1.18 1.12 1.04 1.06 1.07 1.13 1.15 1.13 1.14 1.15 1.19 1.24 1.20 1.19 1.15 1.09 1.04 1.04 1.02 1.04 1.04 1.06
1.37 1.30 1.28 1.29 1.25 1.25 1.22 1.19 1.19 1.15 1.14 1.25 1.12 1.09 1.13 1.22 1.23 1.24 1.23 1.19 1.14 1.06 0.99 0.99 1.05 1.07 1.10 1.13 1.11 1.16 1.23 1.26 1.26 1.24 1.21 1.18 1.11 1.08 1.09 1.10 1.09 1.05 1.07
1.53 1.46 1.46 1.39 1.31 1.26 1.30 1.33 1.35 1.25 1.21 1.33 1.13 1.13 1.01 1.14 1.19 1.24 1.23 1.18 1.08 1.03 1.01 1.04 1.03 1.02 1.05 1.14 1.13 1.14 1.20 1.26 1.24 1.19 1.15 1.14 1.12 1.10 1.07 1.08 1.08 1.07 1.04
1.54 1.50 1.51 1.52 1.50 1.45 1.43 1.44 1.47 1.38 1.26 1.33 1.36 1.22 1.06 0.99 1.11 1.24 1.25 1.15 1.08 1.00 1.05 1.11 1.10 1.08 1.10 1.13 1.11 1.14 1.18 1.19 1.21 1.22 1.19 1.15 1.11 1.09 1.05 1.07 1.06 1.07 1.05
1.52 1.53 1.53 1.50 1.53 1.53 1.48 1.49 1.54 1.50 1.50 1.36 1.47 1.48 1.45 1.35 1.10 1.05 1.24 1.22 1.16 1.09 1.09 1.09 1.07 1.09 1.10 1.12 1.14 1.13 1.11 1.11 1.14 1.17 1.17 1.14 1.09 1.08 1.06 1.05 1.05 1.09 1.10
1.48 1.47 1.45 1.46 1.45 1.51 1.52 1.51 1.51 1.45 1.51 1.44 1.40 1.42 1.43 1.42 1.36 1.19 1.08 1.13 1.17 1.14 1.10 1.13 1.11 1.12 1.13 1.14 1.11 1.04 1.01 1.03 1.06 1.09 1.12 1.08 1.04 1.02 1.02 1.02 1.05 1.09 1.06
1.46 1.47 1.46 1.45 1.42 1.38 1.45 1.50 1.48 1.43 1.46 1.44 1.42 1.40 1.44 1.31 1.29 1.23 1.13 1.11 1.11 1.11 1.14 1.15 1.12 1.08 1.08 1.06 1.03 1.00 0.99 1.01 1.03 1.04 1.03 1.02 1.03 1.02 1.02 1.00 1.01 1.02 1.02
1.42 1.41 1.38 1.35 1.38 1.40 1.48 1.47 1.44 1.45 1.41 1.35 1.42 1.42 1.44 1.44 1.37 1.27 1.15 1.10 1.04 1.02 1.01 1.02 1.02 1.06 1.04 1.01 0.98 0.95 0.94 0.96 0.96 0.96 1.00 1.00 0.96 0.94 0.92 0.92 0.95 0.98 0.99
1.38 1.38 1.33 1.39 1.39 1.33 1.37 1.49 1.41 1.46 1.48 1.37 1.42 1.43 1.39 1.36 1.34 1.24 1.15 1.05 0.90 0.88 0.90 0.89 1.02 1.02 1.01 0.97 0.89 0.88 0.86 0.86 0.89 0.90 0.89 0.89 0.88 0.86 0.89 0.90 0.89 0.92 0.94
1.34 1.35 1.35 1.34 1.32 1.33 1.34 1.42 1.42 1.45 1.44 1.38 1.40 1.38 1.35 1.34 1.35 1.30 1.22 1.07 0.91 0.77 0.79 0.86 0.87 0.95 0.89 0.84 0.80 0.79 0.78 0.80 0.81 0.82 0.83 0.83 0.82 0.85 0.86 0.85 0.86 0.86 0.88
1.37 1.37 1.38 1.41 1.40 1.40 1.40 1.41 1.42 1.40 1.38 1.37 1.36 1.33 1.30 1.28 1.27 1.24 1.13 1.05 0.97 0.83 0.69 0.78 0.80 0.82 0.80 0.75 0.74 0.74 0.75 0.76 0.76 0.77 0.77 0.79 0.79 0.81 0.82 0.80 0.83 0.82 0.82
1.32 1.32 1.35 1.39 1.35 1.32 1.34 1.32 1.36 1.35 1.32 1.34 1.33 1.29 1.29 1.26 1.14 1.09 1.00 0.97 0.92 0.88 0.72 0.73 0.76 0.76 0.71 0.69 0.70 0.73 0.74 0.73 0.74 0.75 0.76 0.76 0.76 0.78 0.79 0.79 0.79 0.78 0.77
1.05 1.09 1.14 1.16 1.19 1.20 1.24 1.25 1.22 1.23 1.24 1.29 1.28 1.24 1.19 1.13 1.05 1.01 0.97 0.93 0.88 0.85 0.74 0.60 0.66 0.68 0.66 0.68 0.68 0.67 0.68 0.70 0.70 0.72 0.74 0.75 0.75 0.78 0.78 0.77 0.75 0.73 0.72
0.83 0.89 0.94 0.97 1.01 1.06 1.10 1.13 1.14 1.12 1.17 1.18 1.17 1.11 1.07 1.02 0.95 0.93 0.91 0.87 0.82 0.76 0.68 0.62 0.59 0.64 0.65 0.64 0.63 0.64 0.64 0.65 0.66 0.70 0.70 0.72 0.73 0.74 0.76 0.73 0.71 0.68 0.64
0.70 0.74 0.82 0.85 0.89 0.93 0.97 1.03 1.03 1.06 1.07 1.08 1.08 1.06 1.05 0.99 0.92 0.86 0.82 0.80 0.77 0.71 0.64 0.60 0.58 0.57 0.58 0.62 0.62 0.56 0.55 0.61 0.60 0.63 0.66 0.68 0.71 0.72 0.74 0.69 0.66 0.61 0.59
0.67 0.70 0.71 0.75 0.79 0.81 0.86 0.88 0.90 0.93 0.95 0.97 1.00 1.01 1.02 1.02 0.98 0.89 0.82 0.77 0.72 0.64 0.61 0.57 0.54 0.54 0.53 0.54 0.52 0.56 0.55 0.58 0.60 0.63 0.62 0.63 0.65 0.65 0.67 0.65 0.60 0.57 0.48
0.65 0.68 0.68 0.71 0.70 0.73 0.78 0.83 0.85 0.85 0.86 0.85 0.86 0.90 0.91 0.92 0.89 0.82 0.80 0.78 0.70 0.61 0.56 0.54 0.53 0.51 0.51 0.54 0.57 0.57 0.55 0.53 0.49 0.64 0.60 0.59 0.60 0.57 0.58 0.58 0.55 0.49 0.41
0.62 0.63 0.66 0.69 0.70 0.72 0.75 0.78 0.82 0.83 0.82 0.81 0.79 0.78 0.78 0.78 0.77 0.76 0.73 0.69 0.66 0.64 0.62 0.58 0.53 0.54 0.54 0.57 0.59 0.56 0.55 0.54 0.53 0.56 0.56 0.53 0.57 0.54 0.43 0.44 0.44 0.39 0.35
0.57 0.60 0.63 0.67 0.69 0.71 0.74 0.75 0.76 0.75 0.75 0.75 0.75 0.74 0.73 0.73 0.72 0.69 0.65 0.61 0.59 0.59 0.61 0.61 0.61 0.61 0.62 0.62 0.60 0.58 0.55 0.54 0.52 0.50 0.50 0.39 0.42 0.34 0.32 0.32 0.33 0.36 0.36
0.53 0.56 0.61 0.63 0.66 0.68 0.74 0.75 0.76 0.73 0.72 0.71 0.73 0.73 0.72 0.70 0.70 0.69 0.62 0.58 0.57 0.59 0.61 0.61 0.62 0.63 0.61 0.60 0.56 0.50 0.43 0.40 0.35 0.37 0.41 0.36 0.33 0.31 0.30 0.30 0.33 0.37 0.38
0.49 0.53 0.56 0.61 0.64 0.65 0.72 0.75 0.76 0.73 0.70 0.71 0.72 0.72 0.73 0.72 0.70 0.68 0.63 0.59 0.57 0.58 0.58 0.56 0.53 0.53 0.52 0.51 0.50 0.42 0.39 0.33 0.34 0.32 0.35 0.32 0.32 0.29 0.25 0.32 0.35 0.35 0.37
Wind_Speed
29 29 27 27 25 24 23 21 19 18 17 16 16 15 14 14 13 12 12 12 12 12 12 12 13 13 13 14 15 15 15 15 15 16 17 18 19 19 19 19 19 18 18
33 31 29 28 26 25 23 22 20 19 18 18 17 17 16 15 14 14 14 14 13 13 14 14 15 15 16 16 16 17 17 17 18 18 19 20 21 21 21 21 20 19 18
34 32 30 29 27 26 24 23 22 21 20 20 19 18 18 17 16 16 16 15 15 15 15 15 16 17 17 18 18 18 19 19 19 20 21 21 21 21 22 21 21 20 19
34 33 31 30 29 27 26 24 24 23 22 21 20 20 19 19 18 18 17 17 17 17 17 17 18 18 19 20 20 20 21 21 21 21 22 22 22 23 23 22 22 21 21
34 33 32 30 30 28 27 26 25 24 23 23 22 21 21 21 20 19 19 19 19 18 18 19 19 20 20 20 21 21 22 22 22 22 22 22 23 24 23 23 23 23 22
33 33 32 31 30 29 28 27 27 25 25 24 23 23 23 23 22 22 21 21 20 20 20 20 20 20 21 21 21 22 23 23 23 23 23 24 25 25 24 24 23 23 23
34 33 32 31 30 30 30 29 28 27 26 25 24 25 25 25 25 25 24 23 22 22 21 21 20 21 21 21 22 23 23 24 25 25 25 25 25 25 25 25 25 25 25
33 33 33 32 31 30 30 28 28 28 28 27 26 25 26 27 28 27 26 24 23 22 22 21 22 22 22 22 24 25 25 25 25 25 25 25 26 27 27 27 27 27 27
35 33 33 33 31 29 30 29 29 28 28 28 29 26 25 26 25 26 25 24 24 23 22 22 23 23 24 25 26 26 25 25 26 26 26 26 28 28 29 29 29 29 29
33 33 32 32 31 31 31 31 30 29 28 28 27 31 28 24 25 24 24 23 23 23 24 25 25 26 27 27 27 26 26 26 27 27 27 27 28 29 30 31 31 31 31
33 31 30 29 30 30 31 32 31 30 30 29 28 27 31 30 25 24 24 24 25 25 25 25 24 24 25 25 24 26 26 26 26 27 27 28 29 30 31 31 32 32 31
32 35 32 33 32 33 36 35 34 33 32 32 33 32 30 31 28 26 26 28 28 26 25 24 24 23 23 23 24 25 25 25 26 27 28 29 29 31 32 31 31 30 29
36 37 37 36 35 33 36 40 39 37 36 33 30 29 29 29 27 25 21 21 20 19 20 21 22 22 23 24 24 25 26 26 27 28 28 28 30 31 31 30 29 28 27
37 35 30 37 39 34 33 36 39 36 35 34 30 25 23 22 25 24 21 19 19 21 21 21 22 22 22 23 24 24 25 26 27 28 29 31 32 32 31 31 30 28 27
22 30 32 28 29 29 26 27 29 29 31 31 29 26 25 24 24 24 23 20 20 20 22 22 22 22 22 23 24 25 26 27 28 29 30 31 31 30 30 29 29 27 27
20 20 24 25 26 26 26 25 26 26 26 25 26 27 27 26 25 24 23 23 22 21 20 20 21 22 23 24 25 26 26 27 28 29 29 29 29 28 28 28 27 26 25
19 21 22 23 25 26 26 27 26 27 27 27 26 27 27 25 24 24 24 23 23 23 23 23 22 23 24 25 26 26 26 27 27 27 27 28 28 27 27 27 26 25 25
23 24 24 25 25 26 27 26 27 27 28 28 28 27 26 26 25 25 24 24 24 23 23 24 24 24 25 25 25 26 26 27 27 27 27 27 27 26 26 26 26 26 25
23 24 25 26 27 28 28 29 29 29 29 29 28 27 27 26 26 25 25 25 25 25 25 25 25 25 26 26 26 26 27 28 28 28 28 27 26 26 25 26 26 24 22
25 26 27 28 28 29 29 30 29 30 29 29 29 29 29 29 28 27 27 26 26 26 26 26 26 26 25 26 26 27 27 28 28 28 27 26 25 25 25 24 23 21 20
28 29 30 31 31 31 31 30 30 30 30 30 30 31 31 31 30 29 29 28 28 28 27 26 26 26 26 26 27 27 27 27 27 26 25 24 24 23 23 21 20 19 18
32 32 32 33 32 33 33 33 32 32 32 32 33 32 32 32 31 30 30 29 30 29 29 28 27 27 27 27 26 26 26 26 25 25 23 23 23 21 21 20 19 17 15
35 35 35 36 35 35 35 35 35 35 35 35 34 34 33 33 33 32 32 31 30 29 29 29 28 28 27 27 26 26 26 25 25 24 22 22 20 19 18 18 16 15 13
37 38 38 38 38 37 37 37 37 36 36 37 36 36 36 35 35 34 33 32 31 30 29 28 28 28 27 27 26 26 25 24 23 23 22 19 19 17 16 15 14 13 13
38 38 39 39 39 39 38 38 39 38 38 38 38 38 37 36 36 35 33 32 31 30 29 28 27 27 26 26 25 24 23 22 22 21 20 18 16 15 14 14 14 13 12
40 40 40 40 40 40 40 39 39 40 39 39 39 39 38 37 37 35 34 32 31 30 28 27 26 26 26 25 24 23 22 22 20 18 17 16 15 14 13 13 12 12 11
Wind_Direction
219 218 219 218 219 220 222 225 229 236 240 244 247 251 253 256 258 258 262 267 270 272 277 282 287 291 294 296 297 300 303 305 308 311 313 314 315 316 316 317 315 313 312
220 220 220 220 220 221 224 227 232 238 244 245 247 253 252 254 257 259 263 265 269 273 277 281 285 289 292 295 297 294 296 297 301 304 306 310 310 311 311 311 311 309 308
218 219 220 220 221 223 226 231 235 241 245 247 251 252 251 254 257 260 263 265 267 273 277 280 285 288 290 291 294 295 297 296 296 299 301 304 306 307 308 307 307 306 305
217 219 220 221 223 226 229 234 238 243 247 249 253 252 253 254 257 260 262 264 268 272 274 280 284 287 290 289 291 292 294 295 295 297 300 302 304 305 304 304 304 303 302
218 219 221 223 225 228 234 237 241 245 247 251 253 251 253 255 258 259 262 265 269 269 275 280 282 286 289 290 290 291 293 291 292 294 297 299 302 305 305 303 301 299 298
218 220 222 225 228 232 235 239 242 246 248 252 252 253 254 256 258 261 263 265 265 270 275 278 281 285 287 289 291 290 291 291 291 292 294 297 300 302 303 303 304 301 298
220 220 223 227 231 234 237 241 245 248 249 254 253 254 256 257 258 259 262 262 266 269 272 276 279 284 286 289 292 292 291 290 290 291 293 295 298 301 301 301 300 299 297
219 224 226 229 235 238 240 245 247 249 251 254 254 255 258 258 259 257 259 261 264 267 271 273 280 284 287 288 290 292 291 289 289 290 292 294 296 299 299 299 298 297 296
224 226 229 232 236 240 244 244 250 249 253 256 253 255 258 259 256 255 257 259 261 266 269 273 278 282 285 287 291 292 290 289 288 289 292 292 296 297 298 298 298 296 295
228 229 232 234 239 243 244 246 249 249 255 255 257 254 255 259 253 255 255 257 260 266 270 273 277 281 285 286 288 289 291 289 288 289 290 292 296 297 297 297 297 296 294
226 230 233 239 242 244 248 246 248 250 252 255 256 258 255 252 253 255 253 258 263 267 270 273 276 282 286 288 287 290 290 290 289 290 291 293 295 297 297 297 296 296 294
232 235 242 245 249 251 252 249 250 251 254 257 259 261 253 252 250 252 257 261 263 266 264 271 277 281 285 287 289 290 290 290 290 291 292 293 295 297 297 297 298 298 296
239 243 251 250 250 257 258 252 250 252 253 262 259 257 254 246 247 242 251 257 258 261 265 271 275 278 283 286 289 290 290 290 290 291 292 293 296 297 297 299 300 299 297
242 245 253 250 248 254 264 252 248 250 251 246 253 252 246 243 242 245 251 253 260 263 268 272 278 280 283 286 288 290 292 292 291 293 293 294 295 295 296 297 298 297 296
242 241 242 247 248 248 259 254 248 246 248 242 243 243 243 248 249 249 250 254 260 268 272 275 276 280 284 287 289 290 291 294 294 294 294 295 295 295 295 297 297 296 295
247 244 244 246 244 249 254 252 244 242 240 238 242 244 247 249 250 249 250 256 263 268 273 276 279 281 286 289 292 293 294 295 296 295 295 294 295 295 295 296 296 297 295
252 252 252 251 250 248 252 249 246 243 242 242 246 247 246 247 246 249 253 258 263 268 272 276 282 284 287 290 292 294 294 295 296 296 294 295 295 294 295 295 296 296 296
260 260 258 257 255 255 252 248 246 244 244 245 249 248 244 243 247 251 255 259 263 269 274 278 281 284 286 289 291 292 293 293 293 294 294 294 293 293 293 293 295 296 294
264 263 261 259 259 257 255 252 252 250 250 251 247 246 246 246 249 253 257 259 264 269 273 276 280 281 284 286 288 290 291 292 293 292 291 292 292 292 292 293 295 293 291
267 265 262 261 259 257 255 253 251 250 250 248 247 246 246 247 250 254 256 259 264 268 271 275 277 278 281 285 286 288 290 291 292 291 290 290 290 291 291 293 293 291 291
270 266 263 261 258 257 255 253 251 249 248 247 248 248 248 249 251 254 257 260 264 267 270 273 275 277 279 282 285 287 289 291 291 289 289 288 289 290 289 289 288 288 290
270 267 264 262 259 257 255 252 251 249 248 248 248 248 249 250 251 254 257 261 263 266 268 270 273 275 276 279 282 285 287 290 291 288 286 287 285 287 286 285 285 284 281
270 267 264 262 259 258 255 253 251 250 249 248 248 248 249 251 252 254 257 260 263 264 267 268 271 273 274 276 280 283 285 287 287 287 285 288 285 283 281 282 280 278 273
271 268 264 262 260 258 256 254 252 251 250 249 249 249 250 251 253 254 256 258 260 263 264 266 268 271 273 276 278 281 282 283 286 284 282 282 280 277 277 276 272 270 271
272 270 266 263 260 258 256 254 252 251 250 250 249 250 250 251 252 252 254 255 257 259 262 265 267 269 271 274 275 278 280 280 283 281 278 277 271 271 272 272 268 262 265
273 270 267 264 261 259 255 254 252 251 250 250 250 249 249 249 250 250 252 253 254 256 259 262 264 267 269 271 273 276 275 277 281 280 273 267 266 267 272 266 262 254 257